Location: Brasstown Bald
(34.8693°N, 83.8103°W)
Time: 04:43:38
(UTC-04:00)

Amateur Radio Satellites - All Passes

Search period start: 25 October 2014 04:13
Search period end: 26 October 2014 04:13
Location: Brasstown Bald, 34.8693°N, 83.8103°W

Satellite Date Start Highest point End Downlink Frequencies (MHz)
Time Altitude Azimuth
RS-15 25 Oct 04:28:38 04:31:59 12° 8° (N) 04:35:22 29.354 - 29.394 USB, Beacon 29.352 USB
Gurwin Techsat 1B 25 Oct 04:29:13 04:34:34 83° 284° (WNW) 04:39:52 435.225 FM
OPAL 25 Oct 04:31:31 04:32:59 11° 60° (ENE) 04:34:27 ?
Oscar 19 25 Oct 04:38:10 04:40:43 14° 296° (WNW) 04:43:16 437.125 CW, 437.150 USB
TMSAT-1 25 Oct 04:40:21 04:45:41 88° 284° (WNW) 04:50:58 436.925 FM
AO-27 25 Oct 04:55:04 04:59:11 24° 293° (WNW) 05:03:18 436.795 MHz FM
JAS-2 25 Oct 05:17:51 05:19:00 10° 86° (E) 05:20:09 435.800 - 435.900 CW/SSB, 435.910 FM
AO-Echo 25 Oct 05:18:14 05:19:57 12° 298° (WNW) 05:21:40 ?
AO-7 25 Oct 05:20:58 05:28:52 45° 101° (E) 05:36:44 29.400 - 29.500 MHz
Uosat F 25 Oct 05:22:11 05:26:37 30° 97° (E) 05:31:01 435.120 FM
Sapphire 25 Oct 05:23:55 05:28:52 37° 302° (WNW) 05:33:52 437.095 MHz 1200 baud AX-25 AFSK
PCSat 25 Oct 05:47:28 05:51:39 22° 307° (NW) 05:55:51 145.825 MHz
OPAL 25 Oct 06:06:00 06:11:10 80° 255° (WSW) 06:16:18 ?
STRAND 1 25 Oct 06:15:59 06:17:38 12° 62° (ENE) 06:19:18 ?
Hamsat 25 Oct 06:25:19 06:27:57 16° 94° (E) 06:30:35 145.90 MHz
RS-15 25 Oct 06:40:22 06:49:50 30° 43° (NE) 06:59:34 29.354 - 29.394 USB, Beacon 29.352 USB
JAS-2 25 Oct 06:57:10 07:05:01 71° 102° (ESE) 07:12:43 435.800 - 435.900 CW/SSB, 435.910 FM
Uosat F 25 Oct 07:01:05 07:05:14 26° 292° (WNW) 07:09:22 435.120 FM
Saudisat 1A 25 Oct 07:11:38 07:14:42 19° 110° (ESE) 07:17:47 436.775 MHz
AO-7 25 Oct 07:14:03 07:21:24 37° 297° (WNW) 07:28:46 29.400 - 29.500 MHz
PANSAT 25 Oct 07:44:36 07:47:22 19° 165° (SSE) 07:50:08 not established
STRAND 1 25 Oct 07:51:01 07:56:07 75° 258° (WSW) 08:01:17 ?
Hamsat 25 Oct 08:00:10 08:03:57 33° 287° (WNW) 08:07:44 145.90 MHz
JAS-2 25 Oct 08:43:31 08:49:15 23° 297° (WNW) 08:55:00 435.800 - 435.900 CW/SSB, 435.910 FM
Saudisat 1A 25 Oct 08:49:57 08:53:58 35° 305° (NW) 08:58:02 436.775 MHz
RS-15 25 Oct 08:52:05 09:03:19 78° 245° (WSW) 09:15:04 29.354 - 29.394 USB, Beacon 29.352 USB
SO-67 25 Oct 08:59:25 09:02:43 43° 285° (WNW) 09:05:59 435.3500 MHz FM
PANSAT 25 Oct 09:23:40 09:27:03 30° 177° (S) 09:30:27 not established
HO-68 25 Oct 09:32:17 09:37:58 25° 95° (E) 09:43:35 435.675 MHz FM
Oscar 11 25 Oct 10:17:42 10:20:08 15° 93° (E) 10:22:34 145.825 FM, Beacon 2401.500 USB
MaSat-1 25 Oct 10:39:18 10:41:38 35° 251° (WSW) 10:43:50 437.345 MHz
PANSAT 25 Oct 11:03:36 11:06:48 25° 190° (S) 11:10:00 not established
KITSAT 1 25 Oct 11:03:52 11:07:21 13° 100° (E) 11:10:50 435.175 FM
ZACube-1 25 Oct 11:07:32 11:10:51 22° 95° (E) 11:14:06 437.345 MHz
RS-15 25 Oct 11:08:32 11:13:56 15° 261° (W) 11:19:28 29.354 - 29.394 USB, Beacon 29.352 USB
UKube-1 25 Oct 11:11:02 11:15:24 71° 102° (ESE) 11:19:44 145.840 MHz, 145.915 MHz
HO-68 25 Oct 11:18:57 11:25:54 54° 291° (WNW) 11:32:49 435.675 MHz FM
FUNcube-1 25 Oct 11:51:25 11:55:40 79° 102° (ESE) 11:59:49 145.950 - 145.970 MHz USB
Oscar 11 25 Oct 11:52:27 11:56:26 38° 287° (WNW) 12:00:24 145.825 FM, Beacon 2401.500 USB
ISS 25 Oct 12:19:56 12:22:52 29° 131° (SE) 12:25:49 145.800 FM
Sapphire 25 Oct 12:33:48 12:35:54 12° 47° (NE) 12:38:00 437.095 MHz 1200 baud AX-25 AFSK
Oscar 10/S400 25 Oct 12:34:46 12:57:56 33° 153° (SSE) 13:14:15 145.825 - 145.975 CW/USB, Beacon 145.810 USB
ZACube-1 25 Oct 12:43:45 12:47:09 24° 290° (WNW) 12:50:31 437.345 MHz
PANSAT 25 Oct 12:45:04 12:46:23 12° 201° (SSW) 12:47:43 not established
SO-50 25 Oct 12:52:36 12:56:39 35° 113° (ESE) 13:00:49 436.795 FM
KITSAT 1 25 Oct 12:53:28 13:01:32 85° 116° (ESE) 13:09:39 435.175 FM
PCSat 25 Oct 12:54:54 12:58:49 20° 52° (NE) 13:02:42 145.825 MHz
Oscar 16 25 Oct 13:18:45 13:22:23 20° 66° (ENE) 13:26:01 437.025 USB, Beacon 2401.1428
Uribyol 2 25 Oct 13:40:53 13:43:15 13° 63° (ENE) 13:45:37 436.500 FM
ITAMSAT 1 25 Oct 13:46:45 13:49:24 14° 63° (ENE) 13:52:04 435.822 SSB
ISS 25 Oct 13:56:48 13:59:33 24° 326° (NNW) 14:02:19 145.800 FM
Oscar 19 25 Oct 14:10:22 14:15:26 63° 74° (ENE) 14:20:32 437.125 CW, 437.150 USB
Gurwin Techsat 1B 25 Oct 14:10:54 14:12:58 12° 63° (ENE) 14:15:02 435.225 FM
UOSAT-12 25 Oct 14:13:40 14:17:08 21° 110° (ESE) 14:20:40 437.025 FM, 437.400 FM
Sapphire 25 Oct 14:14:38 14:20:06 87° 65° (ENE) 14:25:31 437.095 MHz 1200 baud AX-25 AFSK
TMSAT-1 25 Oct 14:22:15 14:23:49 11° 62° (ENE) 14:25:24 436.925 FM
JAS-1B 25 Oct 14:28:06 14:34:12 76° 75° (ENE) 14:39:52 435.800 - 435.900 CW/SSB
AO-27 25 Oct 14:30:01 14:34:49 39° 71° (ENE) 14:39:38 436.795 MHz FM
SO-50 25 Oct 14:33:48 14:37:17 22° 310° (NW) 14:40:51 436.795 FM
PCSat 25 Oct 14:37:16 14:42:32 53° 248° (WSW) 14:47:46 145.825 MHz
AO-Echo 25 Oct 14:46:11 14:51:00 71° 75° (ENE) 14:56:01 ?
KITSAT 1 25 Oct 14:52:00 14:57:54 22° 316° (NW) 15:03:49 435.175 FM
Oscar 16 25 Oct 14:56:29 15:01:23 43° 261° (W) 15:06:17 437.025 USB, Beacon 2401.1428
Uribyol 2 25 Oct 15:16:54 15:22:05 68° 258° (WSW) 15:27:18 436.500 FM
ITAMSAT 1 25 Oct 15:23:09 15:28:18 63° 258° (WSW) 15:33:29 435.822 SSB
Gurwin Techsat 1B 25 Oct 15:46:57 15:52:14 74° 258° (WSW) 15:57:34 435.225 FM
UOSAT-12 25 Oct 15:52:47 15:57:01 35° 305° (NW) 16:01:21 437.025 FM, 437.400 FM
Oscar 19 25 Oct 15:53:02 15:55:08 12° 268° (W) 15:57:14 437.125 CW, 437.150 USB
TMSAT-1 25 Oct 15:57:42 16:03:00 80° 257° (WSW) 16:08:20 436.925 FM
AO-27 25 Oct 16:10:30 16:14:24 21° 265° (W) 16:18:19 436.795 MHz FM
AO-7 25 Oct 16:16:19 16:24:04 46° 65° (ENE) 16:31:49 29.400 - 29.500 MHz
JAS-1B 25 Oct 16:24:52 16:25:21 10° 268° (W) 16:25:49 435.800 - 435.900 CW/SSB
Uosat F 25 Oct 16:32:21 16:36:40 30° 69° (ENE) 16:41:01 435.120 FM
JAS-2 25 Oct 17:07:47 17:11:56 20° 61° (ENE) 17:16:25 435.800 - 435.900 CW/SSB, 435.910 FM
Saudisat 1A 25 Oct 17:19:14 17:23:38 67° 59° (ENE) 17:28:01 436.775 MHz
AO-7 25 Oct 18:09:33 18:16:53 35° 261° (W) 18:24:15 29.400 - 29.500 MHz
Uosat F 25 Oct 18:11:14 18:15:23 26° 264° (W) 18:19:34 435.120 FM
OPAL 25 Oct 18:19:40 18:24:11 34° 100° (E) 18:28:39 ?
Hamsat 25 Oct 18:49:29 18:53:42 74° 259° (WSW) 18:57:54 145.90 MHz
JAS-2 25 Oct 18:50:35 18:56:16 59° 260° (W) 19:02:46 435.800 - 435.900 CW/SSB, 435.910 FM
ISS 25 Oct 18:52:01 18:53:38 13° 27° (NNE) 18:55:15 145.800 FM
SO-67 25 Oct 19:28:44 19:31:45 29° 74° (ENE) 19:34:47 435.3500 MHz FM
OPAL 25 Oct 19:59:01 20:02:50 23° 295° (WNW) 20:06:38 ?
HO-68 25 Oct 20:00:21 20:03:33 14° 56° (NE) 20:06:45 435.675 MHz FM
STRAND 1 25 Oct 20:05:09 20:10:09 49° 100° (E) 20:15:06 ?
ISS 25 Oct 20:27:23 20:30:43 86° 223° (SW) 20:34:03 145.800 FM
KITSAT 1 25 Oct 20:51:18 20:57:40 25° 47° (NE) 21:03:59 435.175 FM
RS-15 25 Oct 21:03:29 21:10:49 21° 101° (ESE) 21:18:01 29.354 - 29.394 USB, Beacon 29.352 USB
SO-67 25 Oct 21:03:40 21:04:47 11° 267° (W) 21:05:54 435.3500 MHz FM
SO-50 25 Oct 21:27:52 21:31:00 17° 48° (NE) 21:34:08 436.795 FM
HO-68 25 Oct 21:42:59 21:50:08 82° 73° (ENE) 21:57:20 435.675 MHz FM
STRAND 1 25 Oct 21:45:34 21:48:54 18° 295° (WNW) 21:52:13 ?
ZACube-1 25 Oct 22:01:44 22:04:10 14° 67° (ENE) 22:06:35 437.345 MHz
UKube-1 25 Oct 22:03:13 22:07:16 39° 72° (ENE) 22:11:19 145.840 MHz, 145.915 MHz
Oscar 11 25 Oct 22:43:34 22:47:53 77° 258° (WSW) 22:52:13 145.825 FM, Beacon 2401.500 USB
FUNcube-1 25 Oct 22:44:04 22:48:23 42° 73° (ENE) 22:52:39 145.950 - 145.970 MHz USB
KITSAT 1 25 Oct 22:45:43 22:53:46 74° 246° (WSW) 23:01:47 435.175 FM
SO-50 25 Oct 23:07:08 23:11:55 59° 244° (WSW) 23:16:42 436.795 FM
RS-15 25 Oct 23:10:40 23:21:45 84° 299° (WNW) 23:32:43 29.354 - 29.394 USB, Beacon 29.352 USB
HO-68 25 Oct 23:34:46 23:38:29 15° 268° (W) 23:42:12 435.675 MHz FM
ZACube-1 25 Oct 23:35:42 23:40:08 48° 261° (W) 23:44:32 437.345 MHz
UKube-1 25 Oct 23:41:05 23:43:34 15° 266° (W) 23:46:03 145.840 MHz, 145.915 MHz
MaSat-1 26 Oct 00:11:25 00:15:38 90° 267° (W) 00:19:29 437.345 MHz
FUNcube-1 26 Oct 00:22:11 00:24:52 15° 267° (W) 00:27:33 145.950 - 145.970 MHz USB
UOSAT-12 26 Oct 00:25:06 00:29:49 78° 60° (ENE) 00:34:26 437.025 FM, 437.400 FM
KITSAT 1 26 Oct 00:46:44 00:47:47 10° 261° (W) 00:48:50 435.175 FM
RS-15 26 Oct 01:27:38 01:35:54 24° 323° (NW) 01:44:14 29.354 - 29.394 USB, Beacon 29.352 USB
JAS-1B 26 Oct 02:14:10 02:20:08 28° 98° (E) 02:26:54 435.800 - 435.900 CW/SSB
Oscar 19 26 Oct 02:25:51 02:30:15 29° 97° (E) 02:34:39 437.125 CW, 437.150 USB
AO-27 26 Oct 02:47:22 02:50:55 18° 94° (E) 02:54:27 436.795 MHz FM
AO-Echo 26 Oct 02:57:00 03:01:44 32° 97° (E) 03:06:24 ?
Oscar 16 26 Oct 03:11:16 03:16:25 88° 103° (ESE) 03:21:32 437.025 USB, Beacon 2401.1428
Sapphire 26 Oct 03:11:50 03:15:23 18° 105° (ESE) 03:18:57 437.095 MHz 1200 baud AX-25 AFSK
PCSat 26 Oct 03:32:50 03:37:34 32° 108° (ESE) 03:42:20 145.825 MHz
Uribyol 2 26 Oct 03:33:08 03:38:16 57° 101° (E) 03:43:21 436.500 FM
ITAMSAT 1 26 Oct 03:39:28 03:44:39 62° 101° (ESE) 03:49:47 435.822 SSB
RS-15 26 Oct 03:51:44 03:54:29 11° 0° (N) 03:57:15 29.354 - 29.394 USB, Beacon 29.352 USB
